Location: Kuppenheim
(48.8299°N, 8.2568°E)
Time: 10:21:28
(UTC+00:00)

Meteor 2-13 Rocket - Pass Details

Date: 20 June 2021
Orbit: 935 x 958 km, 82.5° (Epoch: 01 August)

Event Time Altitude Azimuth Distance (km) Brightness Sun altitude
Exits shadow 00:23:58 26° 191° (SSW) 1,796 5.3 -16.7°
Maximum altitude 00:27:41 85° 279° (W) 969 4.4 -16.5°
Drops below altitude 10° 00:33:54 10° 9° (N) 2,702 8.2 -16.3°
Sets 00:36:25 0° 10° (N) 3,651 9.3 -16.2°
